Location: Carrigahorig
(53.0625°N, 8.1439°W)
Time: 23:28:17
(UTC+00:00)

IRS-1C Rocket - Pass Details

Date: 15 May 2026
Orbit: 798 x 805 km, 98.7° (Epoch: 6 June)

Event Time Altitude Azimuth Distance (km) Brightness Sun altitude
Exits shadow 22:08:06 13° 172° (S) 2,199 5.8 -11.7°
Maximum altitude 22:12:53 71° 256° (WSW) 852 4.3 -12.1°
Drops below altitude 10° 22:18:11 10° 341° (NNW) 2,394 8.0 -12.5°
Sets 22:20:32 0° 344° (NNW) 3,328 9.0 -12.7°
